TimeMDT,TemperatureF,Dew PointF,Humidity,Sea Level PressureIn,VisibilityMPH,Wind Direction,Wind SpeedMPH,Gust SpeedMPH,PrecipitationIn,Events,Conditions,WindDirDegrees,DateUTC
12:04 AM,42.8,41.0,93,29.96,3.0,NNE,21.9,28.8,0.02,Rain,Rain,20,2013-10-04 06:04:00
12:21 AM,39.2,39.2,100,29.95,2.5,NNE,24.2,29.9,0.07,Rain,Rain,20,2013-10-04 06:21:00
12:34 AM,39.2,39.2,100,29.94,3.0,North,21.9,28.8,0.08,Rain,Light Rain,10,2013-10-04 06:34:00
12:53 AM,39.9,39.0,97,29.99,4.0,NNE,21.9,31.1,0.08,Rain,Light Rain,20,2013-10-04 06:53:00
1:20 AM,39.2,37.4,93,29.94,2.5,North,21.9,29.9,0.01,,Overcast,10,2013-10-04 07:20:00
1:30 AM,39.2,37.4,93,29.94,2.5,NNE,25.3,33.4,0.01,,Overcast,20,2013-10-04 07:30:00
1:53 AM,39.0,37.9,96,29.99,3.0,NNE,21.9,34.5,0.02,Rain,Light Rain,30,2013-10-04 07:53:00
2:53 AM,39.0,37.0,93,29.97,4.0,NNE,20.7,35.7,0.00,Rain,Light Rain,30,2013-10-04 08:53:00
3:53 AM,37.9,37.0,97,29.99,3.0,NNE,17.3,28.8,0.02,Snow,Light Snow,30,2013-10-04 09:53:00
4:00 AM,37.4,37.4,100,29.94,2.5,NNE,16.1,24.2,0.02,Snow,Light Snow,20,2013-10-04 10:00:00
4:16 AM,37.4,37.4,100,29.94,4.0,NNE,19.6,28.8,0.04,Rain,Light Rain,20,2013-10-04 10:16:00
4:37 AM,37.4,35.6,93,29.95,1.8,NNE,17.3,26.5,0.07,Snow,Light Snow,20,2013-10-04 10:37:00
4:50 AM,37.4,35.6,93,29.95,2.5,North,16.1,28.8,0.11,Snow,Light Snow,10,2013-10-04 10:50:00
4:53 AM,37.0,36.0,96,30.01,2.5,NNE,15.0,25.3,0.11,Snow,Light Snow,20,2013-10-04 10:53:00
5:02 AM,37.4,35.6,93,29.96,1.5,NNE,15.0,26.5,0.02,Snow,Light Snow,20,2013-10-04 11:02:00
5:25 AM,35.6,35.6,100,29.99,3.0,North,15.0,21.9,0.09,Rain,Rain,350,2013-10-04 11:25:00
5:50 AM,33.8,33.8,100,30.01,2.5,NNW,9.2,-,0.13,Rain,Rain,330,2013-10-04 11:50:00
5:53 AM,34.0,33.1,96,30.05,2.0,NNW,12.7,-,0.13,Rain-Thunderstorm,Rain,340,2013-10-04 11:53:00
6:13 AM,33.8,33.8,100,30.00,3.0,North,13.8,18.4,0.02,Rain-Thunderstorm,Light Rain,350,2013-10-04 12:13:00
6:16 AM,33.8,33.8,100,29.99,2.5,North,15.0,19.6,0.02,Rain-Thunderstorm,Rain,360,2013-10-04 12:16:00
6:30 AM,33.8,33.8,100,29.99,2.5,North,12.7,-,0.02,Snow,Light Snow,350,2013-10-04 12:30:00
6:33 AM,33.8,33.8,100,29.98,3.0,North,15.0,-,0.02,Snow,Light Snow,360,2013-10-04 12:33:00
6:47 AM,33.8,33.8,100,29.98,2.5,North,18.4,-,0.04,Snow,Light Snow,360,2013-10-04 12:47:00
6:53 AM,33.1,33.1,100,30.04,2.5,North,16.1,-,0.04,Snow,Light Snow,360,2013-10-04 12:53:00
7:06 AM,33.8,32.0,93,29.98,3.0,North,20.7,27.6,0.01,Snow,Light Snow,360,2013-10-04 13:06:00
7:14 AM,33.8,32.0,93,29.98,2.5,North,13.8,27.6,0.01,Snow,Light Snow,350,2013-10-04 13:14:00
7:46 AM,33.8,32.0,93,29.99,1.5,North,16.1,23.0,0.03,Snow,Light Snow,360,2013-10-04 13:46:00
7:53 AM,33.1,32.0,96,30.07,1.5,North,16.1,24.2,0.03,Snow,Light Snow,360,2013-10-04 13:53:00
8:50 AM,33.8,32.0,93,30.00,1.2,North,13.8,27.6,0.04,Snow-Thunderstorm,Light Snow,350,2013-10-04 14:50:00
8:53 AM,33.1,32.0,96,30.07,1.5,North,12.7,26.5,0.04,Snow-Thunderstorm,Light Thunderstorms and Snow,360,2013-10-04 14:53:00
9:14 AM,33.8,32.0,93,29.97,1.0,North,23.0,31.1,0.01,Snow-Thunderstorm,Light Thunderstorms and Snow,360,2013-10-04 15:14:00
9:32 AM,33.8,32.0,93,29.98,1.5,North,13.8,23.0,0.02,Snow,Light Snow,360,2013-10-04 15:32:00
9:37 AM,33.8,32.0,93,29.97,1.2,North,16.1,23.0,0.02,Snow-Thunderstorm,Light Snow,360,2013-10-04 15:37:00
9:53 AM,33.1,32.0,96,30.04,1.0,North,17.3,28.8,0.04,Snow,Light Snow,360,2013-10-04 15:53:00
10:16 AM,33.8,30.2,87,29.98,-9999.0,North,-9999.0,-,0.01,,Unknown,0,2013-10-04 16:16:00
10:26 AM,33.8,32.0,93,29.97,1.0,North,18.4,28.8,0.01,Snow,Light Snow,350,2013-10-04 16:26:00
10:53 AM,34.0,33.1,96,30.05,1.0,North,20.7,32.2,0.04,Snow,Light Snow,360,2013-10-04 16:53:00
11:19 AM,33.8,33.8,100,29.97,0.8,North,24.2,33.4,0.03,Snow,Light Snow,350,2013-10-04 17:19:00
11:33 AM,33.8,33.8,100,29.99,1.0,North,20.7,36.8,0.05,Snow,Light Snow,350,2013-10-04 17:33:00
11:53 AM,34.0,34.0,100,30.07,1.0,North,24.2,36.8,0.07,Snow,Light Snow,350,2013-10-04 17:53:00
12:07 PM,33.8,33.8,100,29.99,0.8,North,27.6,38.0,0.03,Snow,Light Snow,350,2013-10-04 18:07:00
12:14 PM,33.8,33.8,100,30.00,1.0,NNW,26.5,39.1,0.04,Snow,Light Snow,340,2013-10-04 18:14:00
12:21 PM,33.8,33.8,100,30.01,0.8,North,24.2,40.3,0.05,Snow,Light Snow,350,2013-10-04 18:21:00
12:45 PM,33.8,33.8,100,30.01,0.5,North,28.8,39.1,0.07,Fog-Snow,Snow,350,2013-10-04 18:45:00
12:53 PM,33.1,33.1,100,30.09,0.5,North,24.2,39.1,0.08,Fog-Snow,Snow,350,2013-10-04 18:53:00
1:29 PM,33.8,33.8,100,30.01,0.2,North,20.7,38.0,0.02,Fog-Snow,Snow,350,2013-10-04 19:29:00
1:53 PM,33.1,33.1,100,30.10,0.2,North,21.9,34.5,0.03,Fog-Snow,Heavy Snow,350,2013-10-04 19:53:00
2:53 PM,33.1,32.0,96,30.10,0.2,NNW,15.0,24.2,0.02,Fog-Snow,Heavy Snow,340,2013-10-04 20:53:00
3:13 PM,33.8,33.8,100,30.02,0.2,NNW,16.1,25.3,0.01,Fog-Snow,Heavy Snow,330,2013-10-04 21:13:00
3:40 PM,33.8,33.8,100,30.02,0.2,NNW,15.0,24.2,0.02,Fog-Snow,Heavy Snow,330,2013-10-04 21:40:00
3:53 PM,33.1,33.1,100,30.12,0.2,NW,18.4,25.3,0.03,Fog-Snow,Heavy Snow,320,2013-10-04 21:53:00
4:44 PM,33.8,33.8,100,30.04,0.2,NW,13.8,21.9,0.02,Fog,Fog,310,2013-10-04 22:44:00
4:53 PM,33.1,32.0,96,30.14,0.2,NW,18.4,27.6,0.02,Fog-Snow,Snow,310,2013-10-04 22:53:00
5:16 PM,33.8,32.0,93,30.05,0.2,NW,25.3,32.2,0.01,Fog-Snow,Heavy Snow,310,2013-10-04 23:16:00
5:38 PM,33.8,33.8,100,30.06,0.2,NW,27.6,35.7,0.02,Fog-Snow,Heavy Snow,310,2013-10-04 23:38:00
5:53 PM,33.1,33.1,100,30.16,0.2,NW,26.5,39.1,0.02,Fog-Snow,Snow,310,2013-10-04 23:53:00
6:33 PM,33.8,32.0,93,30.08,0.5,NW,29.9,41.4,0.00,Fog-Snow,Snow,310,2013-10-05 00:33:00
6:53 PM,33.1,33.1,100,30.18,0.5,NW,32.2,46.0,0.01,Fog-Snow,Snow,310,2013-10-05 00:53:00